CZ-6A DEB, 54604

Orbit data source: Space-Track

CZ-6A DEB, 54604 is space debris in SSO originally from a launch on Fri, 11 Nov 2022 UTC launched from the Taiyaun Space Center, China (TSC). Debris objects in space refer to the collection of defunct objects orbiting the Earth. Examples of debris include non-operational satellites, rocket bodies, and fragments generated from explosions, collisions, or faulty payload assembly.

Loading next visibility...
Identifier
54604, 2022-151NE
Orbit
SSO
Country
Flag of CNCN / PRC
Related business
Manufacturer
SAST
Mission
Spacecraft
Bus & Motor
Unknown
Mass
Unknown
Launch date (UTC)
2022-11-11 (3 years ago)
Launch vehicle
Unknown
Launch site
Taiyaun Space Center, China (TSC)
Object type
Payload
Rocket body
Debris
Shape & HBR
Unknown shape, 0.2 m
Radar Cross Section
Small (<0.1 m²)

Expand to show TLE details & history
Last TLE update: 23 hours ago

TLE from 23 hours ago
0 CZ-6A DEB
1 54604U 22151NE  25349.90100237  .00000258  00000-0  16896-3 0  9993
2 54604  98.8493 349.6907 0049599 148.3348 212.0823 14.09977062158431
Epoch: 2025-12-15T21:37Z
TLE epoch observation values (Epoch: 2025-12-15T21:37:26.604Z)
Latitude
Longitude
-59.46307°
Altitude
892.818 km
Speed
7.39 km/s
True Right ascension
23h 18m 45s
True Declination
0° 00' 00"
Sunlit
Object was in daylight at epoch
Visualization orbit readout
Latitude
Unknown
Longitude
Unknown
Altitude
Unknown
Speed
Unknown
Apparent Right ascension
Unknown
Apparent Declination
Unknown
Sunlit
N/A
Visualization observer readout
Local Sidereal Time
19:43:03
Azimuth
Unknown
Elevation
Unknown
Doppler factor
Unknown
Orbital elements
Apogee altitude
892.513 km
Perigee altitude
820.745 km
Semi-major axis
7,234.766 km
Eccentricity
0.00496
Inclination
98.8493°
RAAN
349.6907°
Arg. of periapsis
148.3348°
True anomaly
211.782°
Mean anomaly
212.0823°
Eccentric anomaly
211.93199°
Mean motion
3.52701 °/min
Orbital period
102.07 mins
BSTAR
0.00016896
Loading maneuver chart data...
Computing Atmospheric mass density...
Loading historical data...
Loading historical data...
Loading historical data...
Loading historical data...
Loading historical data...
Loading historical data...
Loading historical data...

Documentation

Showing up to 5 results
|